Salida, CO

3:53 AM MST on February 25, 2017 (GMT -0700)
Salida

Weather History for KANK - July, 2013

Change the Weather History Date:

Wednesday, July 10, 2013

  Actual Average (KGUC) Record (KGUC)
Temperature  
Mean Temperature 74 °F -  
Max Temperature 89 °F 77 °F 87 °F (2003)
Min Temperature 58 °F 44 °F 37 °F (2003)
Cooling Degree Days 8    
Growing Degree Days 24 (Base 50)    
Moisture  
Dew Point 44 °F    
Average Humidity 40    
Maximum Humidity 64    
Minimum Humidity 13    
Precipitation  
Precipitation 0.00 in - - ()
Sea Level Pressure  
Sea Level Pressure 30.44 in    
Wind  
Wind Speed 5 mph (SE)    
Max Wind Speed 23 mph    
Max Gust Speed 36 mph    
Visibility 10 miles    
Events      
Averages and records for this station are not official NWS values.
T = Trace of Precipitation, MM = Missing Value Source: NWS Daily Summary

Daily Weather History Graph

Daily Weather History Graph

Search for Another Location

Airport or City:

Trip Planner

Search our weather history database for the weather conditions in past years. The results will help you decide how hot, cold, wet, or windy it might be!

Date:

Astronomy

Jul. 10, 2013 Rise Set
Actual Time 5:48 AM MDT 8:30 PM MDT
Civil Twilight 5:17 AM MDT 9:01 PM MDT
Nautical Twilight 4:38 AM MDT 9:40 PM MDT
Astronomical Twilight 3:54 AM MDT 10:23 PM MDT
Moon 8:10 AM MDT (7/10) 9:44 PM MDT (7/10)
Length of Visible Light 15h 43m
Length of Day
14h 41m
Waxing Crescent, 5% of the Moon is Illuminated
Jul 10
Waxing Crescent
Jul 15
First Quarter
Jul 22
Full
Jul 29
Last Quarter
Aug 6
New

Hourly Weather History & Observations

Time (MDT) Temp. Dew Point Humidity Pressure Visibility Wind Dir Wind Speed Gust Speed Precip Events Conditions
12:15 AM 68.0 °F 44.6 °F 43% 30.51 in 10.0 mi Calm Calm - N/A   Scattered Clouds
12:35 AM 69.1 °F 43.2 °F 39% 30.50 in 10.0 mi North 3.5 mph - N/A   Scattered Clouds
12:55 AM 66.2 °F 44.2 °F 45% 30.51 in 10.0 mi Calm Calm - N/A   Clear
1:15 AM 65.7 °F 45.1 °F 47% 30.50 in 10.0 mi West 3.5 mph - N/A   Clear
1:55 AM 63.9 °F 45.3 °F 51% 30.49 in 10.0 mi Calm Calm - N/A   Clear
2:15 AM 63.7 °F 45.9 °F 52% 30.49 in 10.0 mi WNW 4.6 mph - N/A   Clear
2:35 AM 61.9 °F 45.5 °F 55% 30.49 in 10.0 mi West 4.6 mph - N/A   Clear
2:55 AM 61.0 °F 45.5 °F 57% 30.49 in 10.0 mi WSW 5.8 mph - N/A   Clear
3:15 AM 60.3 °F 45.5 °F 58% 30.49 in 10.0 mi West 6.9 mph - N/A   Clear
3:35 AM 60.3 °F 45.3 °F 58% 30.49 in 10.0 mi West 6.9 mph - N/A   Clear
3:55 AM 58.5 °F 45.5 °F 62% 30.49 in 10.0 mi Calm Calm - N/A   Clear
4:15 AM 60.1 °F 45.5 °F 59% 30.49 in 10.0 mi Calm Calm - N/A   Clear
4:35 AM 59.0 °F 45.0 °F 60% 30.49 in 10.0 mi West 6.9 mph - N/A   Clear
4:55 AM 59.9 °F 45.0 °F 58% 30.50 in 10.0 mi West 3.5 mph - N/A   Clear
5:15 AM 58.8 °F 45.5 °F 61% 30.50 in 10.0 mi West 3.5 mph - N/A   Clear
5:35 AM 59.0 °F 44.8 °F 59% 30.50 in 10.0 mi SW 5.8 mph - N/A   Clear
5:55 AM 59.4 °F 45.1 °F 59% 30.50 in 10.0 mi Calm Calm - N/A   Clear
6:15 AM 59.9 °F 45.0 °F 58% 30.50 in 10.0 mi Calm Calm - N/A   Clear
6:35 AM 61.0 °F 45.0 °F 56% 30.51 in 10.0 mi WNW 4.6 mph - N/A   Clear
6:55 AM 61.3 °F 45.7 °F 56% 30.51 in 10.0 mi Calm Calm - N/A   Clear
7:15 AM 62.4 °F 46.0 °F 55% 30.52 in 10.0 mi Calm Calm - N/A   Clear
7:35 AM 63.3 °F 45.1 °F 52% 30.52 in 10.0 mi Calm Calm - N/A   Clear
7:55 AM 65.5 °F 45.5 °F 48% 30.52 in 10.0 mi Calm Calm - N/A   Mostly Cloudy
8:15 AM 67.1 °F 45.5 °F 46% 30.52 in 10.0 mi Calm Calm - N/A   Scattered Clouds
8:35 AM 68.2 °F 46.6 °F 46% 30.52 in 10.0 mi NE 3.5 mph - N/A   Clear
8:55 AM 70.0 °F 45.1 °F 41% 30.52 in 10.0 mi Calm Calm - N/A   Scattered Clouds
9:15 AM 71.1 °F 43.3 °F 37% 30.51 in 10.0 mi Calm Calm - N/A   Scattered Clouds
9:35 AM 74.3 °F 42.8 °F 32% 30.50 in 10.0 mi North 4.6 mph - N/A   Scattered Clouds
9:55 AM 73.8 °F 43.7 °F 34% 30.50 in 10.0 mi North 5.8 mph - N/A   Mostly Cloudy
10:15 AM 74.7 °F 44.2 °F 34% 30.49 in 10.0 mi North 3.5 mph - N/A   Mostly Cloudy
10:35 AM 77.0 °F 42.1 °F 29% 30.48 in 10.0 mi Calm Calm - N/A   Scattered Clouds
10:55 AM 80.2 °F 41.9 °F 26% 30.47 in 10.0 mi Calm Calm - N/A   Clear
11:15 AM 79.5 °F 41.7 °F 26% 30.47 in 10.0 mi Calm Calm - N/A   Clear
11:35 AM 79.9 °F 42.1 °F 26% 30.46 in 10.0 mi SW 3.5 mph - N/A   Scattered Clouds
11:55 AM 80.2 °F 43.5 °F 27% 30.45 in 10.0 mi WSW 4.6 mph - N/A   Scattered Clouds
12:15 PM 82.0 °F 37.6 °F 20% 30.44 in 10.0 mi SSE 5.8 mph - N/A   Mostly Cloudy
12:35 PM 85.5 °F 35.4 °F 17% 30.42 in 10.0 mi SSW 11.5 mph 16.1 mph N/A   Scattered Clouds
12:55 PM 87.6 °F 35.4 °F 16% 30.42 in 10.0 mi South 12.7 mph - N/A   Clear
1:15 PM 87.1 °F 34.7 °F 15% 30.40 in 10.0 mi SSW 9.2 mph - N/A   Clear
1:35 PM 87.8 °F 30.9 °F 13% 30.39 in 10.0 mi East 8.1 mph - N/A   Clear
1:55 PM 87.1 °F 31.6 °F 14% 30.38 in 10.0 mi Calm Calm - N/A   Clear
2:15 PM 88.0 °F 31.8 °F 13% 30.37 in 10.0 mi Calm Calm - N/A   Clear
2:35 PM 85.1 °F 37.0 °F 18% 30.37 in 10.0 mi North 12.7 mph 24.2 mph N/A   Mostly Cloudy
2:55 PM 85.1 °F 38.1 °F 19% 30.37 in 10.0 mi North 12.7 mph 21.9 mph N/A   Mostly Cloudy
3:15 PM 84.7 °F 40.1 °F 21% 30.37 in 10.0 mi ENE 20.7 mph 25.3 mph N/A   Mostly Cloudy
3:35 PM 85.8 °F 42.1 °F 21% 30.35 in 10.0 mi NE 12.7 mph - N/A   Mostly Cloudy
3:55 PM 89.4 °F 38.1 °F 16% 30.36 in 10.0 mi North 6.9 mph - N/A   Scattered Clouds
4:15 PM 86.7 °F 39.2 °F 19% 30.35 in 10.0 mi North 10.4 mph 21.9 mph N/A   Clear
4:35 PM 84.4 °F 46.0 °F 26% 30.35 in 10.0 mi SE 20.7 mph 26.5 mph N/A   Mostly Cloudy
4:55 PM 81.1 °F 45.5 °F 28% 30.35 in 10.0 mi ESE 15.0 mph 23.0 mph N/A   Mostly Cloudy
5:15 PM 80.4 °F 46.2 °F 30% 30.36 in 10.0 mi ESE 12.7 mph 20.7 mph N/A   Mostly Cloudy
5:35 PM 80.8 °F 45.0 °F 28% 30.37 in 10.0 mi ESE 20.7 mph 32.2 mph N/A   Scattered Clouds
5:55 PM 77.2 °F 45.5 °F 32% 30.37 in 10.0 mi ESE 23.0 mph 35.7 mph N/A   Scattered Clouds
6:15 PM 76.5 °F 46.6 °F 35% 30.37 in 10.0 mi ESE 17.3 mph 31.1 mph N/A   Scattered Clouds
6:35 PM 75.2 °F 46.6 °F 36% 30.37 in 10.0 mi ESE 18.4 mph 25.3 mph N/A   Clear
6:55 PM 72.7 °F 47.3 °F 40% 30.36 in 10.0 mi ESE 12.7 mph 18.4 mph N/A   Clear
7:15 PM 72.7 °F 46.9 °F 40% 30.36 in 10.0 mi ESE 9.2 mph 16.1 mph N/A   Clear
7:35 PM 72.5 °F 47.3 °F 41% 30.37 in 10.0 mi ESE 12.7 mph 17.3 mph N/A   Scattered Clouds
7:55 PM 72.5 °F 46.9 °F 40% 30.37 in 10.0 mi SE 10.4 mph - N/A   Mostly Cloudy
8:15 PM 72.7 °F 46.4 °F 39% 30.37 in 10.0 mi ESE 10.4 mph 17.3 mph N/A   Mostly Cloudy
8:35 PM 73.0 °F 46.6 °F 39% 30.39 in 10.0 mi ESE 5.8 mph 17.3 mph N/A   Mostly Cloudy
8:55 PM 72.0 °F 50.4 °F 46% 30.40 in 10.0 mi SSE 9.2 mph - N/A   Mostly Cloudy
9:15 PM 69.1 °F 52.3 °F 55% 30.40 in 10.0 mi ESE 5.8 mph - N/A   Scattered Clouds
9:35 PM 70.7 °F 50.2 °F 48% 30.42 in 10.0 mi SE 6.9 mph - N/A   Mostly Cloudy
9:55 PM 70.7 °F 50.0 °F 48% 30.42 in 10.0 mi SE 5.8 mph - N/A   Mostly Cloudy
10:15 PM 69.4 °F 51.6 °F 53% 30.43 in 10.0 mi ESE 3.5 mph - N/A   Mostly Cloudy
10:35 PM 69.3 °F 51.8 °F 54% 30.44 in 10.0 mi Calm Calm - N/A   Mostly Cloudy
10:55 PM 68.2 °F 52.5 °F 57% 30.45 in 10.0 mi SE 5.8 mph - N/A   Overcast
11:15 PM 67.5 °F 52.7 °F 59% 30.45 in 10.0 mi Calm Calm - N/A   Scattered Clouds
11:35 PM 66.0 °F 53.2 °F 63% 30.45 in 10.0 mi SE 5.8 mph - N/A   Clear
11:55 PM 65.7 °F 53.2 °F 64% 30.45 in 10.0 mi SSE 4.6 mph - N/A   Clear